Weather in Priterechny

Russia / Republic of North Ossetia — Alania     43°44′33″N   44°18′14″E
temp.,
°C
wind,
m/s
gust,
m/s
humid.,
%
clouds,
%
prec.,
mm/h
press.,
hPa
HPBL,
m
7 march, sun
sun700:00+9wnw2356100 0.0 101534
03:00+6nw101572100 0.0 10181037
06:00+1nnw71166100 0.1 10241313
09:00+1nw3566100 0.1 10251021
12:00+3nnw333399 0.0 10241396
15:00+4nne223050 0.0 10221577
18:00+3e22383 0.0 102361
21:00+1e35462 0.0 1023137
8 march, mon
mon800:000ese23500 0.0 102249
03:000e115017 0.0 102221
06:00−1se115266 0.0 102221
09:00+2nnw004455 0.0 1020358
12:00+5ene233599 0.0 10181130
15:00+6ene323699 0.0 10171441
18:00+4ne224899 0.0 101740
21:00+3ese126198 0.0 101924
9 march, tue
tue900:00+2wsw116888 0.0 101823
03:00+1wnw227387 0.0 101822
06:000wnw127284 0.0 101824
09:00+3sw115985 0.0 1018356
12:00+7ssw21450 0.0 10161246
15:00+8wnw23390 0.0 10161917
18:00+7nnw3648100 0.0 1018289
21:00+4nw5868100 0.1 1021732
10 march, wed
wed1000:00+3nw2483100 0.2 1022557
03:00+1wnw5773100 0.4 1023459
06:000nw3767100 0.0 1024517
09:00+2nnw465699 0.0 1024978
12:00+4nnw344699 0.0 10221411
15:00+5n2243100 0.0 10211460
18:00+3ne3452100 0.0 1021900
21:00+2ene4653100 0.0 1022724
11 march, thu
thu1100:000ene7962100 0.1 1020812
03:00−3ene61094100 1.4 1020586
06:00−3ene71194100 2.0 1020667
09:00−4ene71193100 3.6 1020763
12:00−4ene81191100 1.3 1019872
15:00−5ene81192100 2.6 1019855
18:00−7ene61094100 1.8 1021731
21:00−7ene5895100 3.8 1023620